Location: Emory University Observatory
(33.7903°N, 84.3267°W)
Time: 23:48:42
(UTC-05:00)

OTV 5 (USA 277) - Pass Details

Date: 14 October 2017
Orbit: 404 x 417 km, 43.0° (Epoch: 07 September)

Event Time Altitude Azimuth Distance (km) Brightness Sun altitude
Rises 21:09:17 0° 299° (WNW) 2,353 ? -26.7°
Reaches altitude 10° 21:11:55 10° 321° (NW) 1,490 ? -27.3°
Enters shadow 21:12:30 13° 329° (NNW) 1,346 ? -27.4°
